PEGASUS DEB, 39318

Orbit data source: Space-Track

PEGASUS DEB, 39318 is space debris in LEO originally from a launch on Thu, 19 May 1994 UTC launched from the Air Force Western Test Range (AFWTR). Debris objects in space refer to the collection of defunct objects orbiting the Earth. Examples of debris include non-operational satellites, rocket bodies, and fragments generated from explosions, collisions, or faulty payload assembly.

Loading next visibility...
Identifier
39318, 1994-029AFD
Orbit
LEO
Country
Flag of USUS
Related business
Manufacturer
Unknown
Mission
Spacecraft
Bus & Motor
Unknown
Mass
Unknown
Launch date (UTC)
1994-05-19 (32 years ago)
Launch vehicle
Unknown
Launch site
Air Force Western Test Range (AFWTR)
Object type
Payload
Rocket body
Debris
Shape & HBR
Unknown shape, 0.1 m
Radar Cross Section
Small (<0.1 m²)

Expand to show TLE details & history
Last TLE update: 2 days ago

TLE from 2 days ago
0 PEGASUS DEB
1 39318U 94029AFD 26119.24876558  .00000904  00000-0  12709-3 0  9997
2 39318  81.9405 121.4359 0185585 162.0256 212.1841 14.65037518270910
Epoch: 2026-04-29T05:58Z
TLE epoch observation values (Epoch: 2026-04-29T05:58:13.346Z)
Latitude
12.92892°
Longitude
176.52076°
Altitude
790.707 km
Speed
7.4 km/s
True Right ascension
08h 13m 09s
True Declination
12° 51' 16"
Sunlit
Object was in daylight at epoch
Visualization orbit readout
Latitude
Unknown
Longitude
Unknown
Altitude
Unknown
Speed
Unknown
Apparent Right ascension
Unknown
Apparent Declination
Unknown
Sunlit
N/A
Visualization observer readout
Local Sidereal Time
08:21:38
Azimuth
Unknown
Elevation
Unknown
Doppler factor
Unknown
Orbital elements
Apogee altitude
804.899 km
Perigee altitude
543.144 km
Semi-major axis
7,052.158 km
Eccentricity
0.01856
Inclination
81.9405°
RAAN
121.4359°
Arg. of periapsis
162.0256°
True anomaly
211.07326°
Mean anomaly
212.1841°
Eccentric anomaly
211.62651°
Mean motion
3.66488 °/min
Orbital period
98.23 mins
BSTAR
0.00012709
Loading maneuver chart data...
Computing Atmospheric mass density...

Documentation

Showing up to 5 results
|